STARLINK-3728, 52361

Orbit data source: Space-Track

STARLINK-3728, 52361 is a payload satellite owned by SpaceX/Seattle (US) in LEO that was launched on Fri, 29 Apr 2022 UTC via an FALCON 9 launch vehicle from the Air Force Eastern Test Range (AFETR). Payload-class satellites include a variety of spacecraft equipped with specific instruments for various scientific and technological missions. These include communications satellites like Starlink; space stations such as the ISS; scientific satellites like the Hubble; Earth observation satellites from companies like Planet Labs, Umbra, and HawkEye 360; GPS; miniature CubeSats for education and research; and military/defense satellites.

Loading next visibility...
Identifier
52361, 2022-045AG
Orbit
LEO
Country
Flag of USUS
Related business
Manufacturer
SpaceX/Seattle
Mission
Operational Commercial Communications
Bus & Motor
STARLINK, Unknown motor
Mass
297 kg wet, ~275 kg dry
Launch date (UTC)
2022-04-29 (4 years ago)
Launch vehicle
FALCON 9
Launch site
Air Force Eastern Test Range (AFETR)
Object type
Payload
Rocket body
Debris
Shape & HBR
Box + 1 Pan, 10.1 m
Radar Cross Section
11.087 m², Large (>1 m²)

Expand to show TLE details & history
Last TLE update: 17 hours ago

TLE from 17 hours ago
0 STARLINK-3728
1 52361U 22045AG  25349.34693833 -.00000749  00000-0 -29001-4 0  9990
2 52361  53.2152 217.7473 0001045  88.3101 271.8011 15.08819593203058
Epoch: 2025-12-15T08:19Z
TLE epoch observation values (Epoch: 2025-12-15T08:19:35.471Z)
Latitude
-0.00002°
Longitude
8.60268°
Altitude
540.68 km
Speed
7.593 km/s
True Right ascension
14h 30m 59s
True Declination
0° 00' 00"
Sunlit
Object was in daylight at epoch
Visualization orbit readout
Latitude
Unknown
Longitude
Unknown
Altitude
Unknown
Speed
Unknown
Apparent Right ascension
Unknown
Apparent Declination
Unknown
Sunlit
N/A
Visualization observer readout
Local Sidereal Time
00:24:33
Azimuth
Unknown
Elevation
Unknown
Doppler factor
Unknown
Orbital elements
Apogee altitude
540.774 km
Perigee altitude
539.328 km
Semi-major axis
6,918.188 km
Eccentricity
0.0001
Inclination
53.2152°
RAAN
217.7473°
Arg. of periapsis
88.3101°
True anomaly
271.78913°
Mean anomaly
271.8011°
Eccentric anomaly
271.79512°
Mean motion
3.77185 °/min
Orbital period
95.44 mins
BSTAR
-0.000029001
Loading maneuver chart data...
Computing Atmospheric mass density...
Loading historical data...
Loading historical data...
Loading historical data...
Loading historical data...
Loading historical data...
Loading historical data...
Loading historical data...

Documentation

Showing up to 5 results
|